Regional Weather Roundup
Issued by NWS

Home | Current Version | Previous Version | Text Only | Print | Product List | Glossary Off
Versions: 1 2 3 4 5 6 7 8 9 10 11 12 13 14 15 16 17 18 19 20 21 22 23 24 25 26 27 28 29 30 31 32 33 34 35 36 37 38 39 40 41 42 43 44 45 46 47 48 49 50

000
ASUS43 KLSX 171459
RWRMO

WEATHER SUMMARY FOR MISSOURI
NATIONAL WEATHER SERVICE SPRINGFIELD MO
900 AM CST WED DEC 17 2014

NOTE: "FAIR" INDICATES FEW OR NO CLOUDS BELOW 12,000 FEET WITH NO
       SIGNIFICANT WEATHER AND/OR OBSTRUCTIONS TO VISIBILITY.
       CURRENT SKY AND/OR WEATHER CONDITIONS ARE NOT AVAILABLE FOR
       CHILLICOTHE AND FARMINGTON.

MOZ001>031-035>038-043-044-053-054-171600-
...NORTHERN AND WESTERN MISSOURI...

CITY           SKY/WX    TMP DP  RH WIND       PRES   REMARKS
KANSAS CTY INT PTSUNNY   23  17  78 NE5       30.34S WCI  17
KANSAS C DTWN  MOSUNNY   27  18  69 CALM      30.36S
LEE`S SUMMIT   MOSUNNY   25  18  74 NE5       30.34S WCI  19
ST JOSEPH      PTSUNNY   22  17  81 N5        30.37R WCI  16
CHILLICOTHE      N/A     23  18  81 VRB5      30.38R WCI  17
KIRKSVILLE     CLOUDY    23  19  85 N8        30.34S WCI  14

$$
MOZ066>068-077>081-088>096-101>105-171600-
...SOUTHWEST MISSOURI...

CITY           SKY/WX    TMP DP  RH WIND       PRES   REMARKS
SPRINGFIELD    MOSUNNY   27  23  85 E6        30.30R WCI  20
JOPLIN         CLOUDY    28  24  85 CALM      30.34R

$$
MOZ032>034-039>042-045>050-055>058-069>072-171600-
...CENTRAL MISSOURI...

CITY           SKY/WX    TMP DP  RH WIND       PRES   REMARKS
COLUMBIA       PTSUNNY   26  21  81 W5        30.34R WCI  20
JEFFERSON CITY MOSUNNY   28  21  75 NW5       30.37R WCI  23
ROLLA          MOSUNNY   26  21  81 NW6       30.32R WCI  19
SEDALIA        SUNNY     26  21  81 N6        30.35S WCI  19
WARRENSBURG    SUNNY     27  21  80 N6        30.35F WCI  20
OSAGE BEACH    MOSUNNY   27  19  74 N3        30.34S

$$
MOZ051-052-059>065-171600-
...EAST CENTRAL MISSOURI...

CITY           SKY/WX    TMP DP  RH WIND       PRES   REMARKS
ST LOUIS INTL  PTSUNNY   32  23  69 W6        30.34R WCI  26
SPIRIT OF STL  PTSUNNY   32  23  69 NW6       30.34R WCI  26

$$
MOZ072>076-082>087-097>100-106>115-171600-
...SOUTH CENTRAL AND SOUTHEAST MISSOURI...

CITY           SKY/WX    TMP DP  RH WIND       PRES   REMARKS
CAPE GIRARDEAU PTSUNNY   31  24  75 N6        30.35R WCI  25
FARMINGTON     CLOUDY    28  21  74 NW7       30.34R WCI  21
POPLAR BLUFF   SUNNY     33  23  66 NE6       30.35R WCI  28
WEST PLAINS    MOSUNNY   28  23  81 NE6       30.31R WCI  22

$$


USA.gov is the U.S. government's official web portal to all federal, state and local government web resources and services.